Flight Information

DEPARTURE
SAN DIEGO, CA
Elevation:
16
Runways:
9/27 - 9400x200 - ASPH-CONC-E
ATIS:
134.8 619-298-0997
Clearance Delivery:
125.9
Ground:
123.9
Tower:
LINDBERGH TOWER 118.3
DESTINATION
,
Elevation:
TPA:
1000 (est.)


6756 NM74° True-13° Var61° HDG

Flight Plan:
(click to file on line)

1. Type
2. Aircraft Identification
3. Aircraft Type / Special Equipment
4. True Airspeed
kts
5. Departure Airport
(ICAO code)
6. Arriving Airport
(ICAO code)
7. Cruising Altitude
ft
8. Alternate Airport
(ICAO code)
9. Route of Flight
10. Remarks


00:00:00 Departure ATIS: Destination ATIS:

Clearance Limit:
Route:
Altitude: Expect in minutes
Frequency:
Transponder: (7500 Hijack / 7600 Lost Comms / 7700 Emergency)


KSAN 221451Z 08004KT 10SM BKN021 BKN200 14/09 A3005 RMK AO2 SLP175 T01440094 53002
Time: 2021-01-22T14:51:00Z
1611330654
Winds: 80 @ 4 kts
Visibility: 10.0 sm
Clouds (AGL): BKN 2100
BKN 20000
Temperature: 14.4 C
Dew Point: 9.4 C
Pressure: 30.050198 in Hgbr


Notes:

Data extracted from FAA Digital Chart Supplement. Effective: 0901Z Thursday, Dec 31, 2020 to 0901Z Thursday, Jan 28, 2021
Current ATIS data is provided courtisy of PilotEdge.